Location: Casco Millpond
(44.5581°N, 87.6111°W)
Time: 21:47:38
(UTC+00:00)

Cosmos 1758 - Pass Details

Date: 16 January 2026
Orbit: 479 x 500 km, 82.5° (Epoch: 10 February)

Event Time Altitude Azimuth Distance (km) Brightness Sun altitude
Rises 12:31:51 0° 222° (SW) 2,578 6.5 -9.1°
Reaches altitude 10° 12:34:25 10° 241° (WSW) 1,697 5.4 -8.7°
Maximum altitude 12:37:09 19° 288° (WNW) 1,226 4.5 -8.2°
Drops below altitude 10° 12:39:53 10° 336° (NNW) 1,698 5.4 -7.8°
Sets 12:42:28 0° 354° (N) 2,581 6.5 -7.4°
